Wind_Speed
50 47 47 50 51 52 52 50 48 42 39 35 35 34 33 34 34 33 33 33 33 33 33 32 32 31 31 30 30 30 30 30 30 30 30 30 31 31 32 32 33 34 35 36
50 50 48 49 50 50 49 49 46 44 41 37 36 36 36 34 33 33 33 32 32 32 32 31 31 30 30 29 29 29 29 29 29 30 30 30 31 31 31 32 33 34 35 36
51 51 51 50 49 48 47 47 46 44 39 39 38 37 35 34 34 34 34 33 32 32 31 30 30 29 29 29 29 29 29 29 29 29 30 30 31 31 32 33 34 35 36 37
48 50 51 48 46 46 46 45 45 43 41 40 38 36 36 36 36 36 34 32 32 32 31 30 29 29 28 28 28 28 28 28 29 29 30 30 31 32 33 33 34 34 36 37
45 48 49 47 46 45 46 45 44 44 43 42 40 39 38 37 36 35 33 33 33 33 31 30 29 29 28 28 28 28 28 28 29 29 30 30 31 32 33 33 34 35 36 37
43 43 46 44 44 45 46 46 44 45 44 43 42 42 36 35 36 36 36 35 34 32 31 30 29 29 28 28 27 28 28 29 29 29 30 31 31 32 32 33 34 35 36 37
44 42 42 43 44 45 46 43 40 42 43 44 43 39 35 36 37 37 36 35 33 32 31 30 29 29 28 28 28 28 29 29 30 30 31 31 31 32 33 33 34 35 36 38
44 44 41 41 44 44 43 42 40 39 41 43 41 39 39 38 37 36 35 34 33 32 31 30 29 29 28 28 28 29 29 30 30 30 30 30 31 32 33 34 34 35 36 38
43 42 39 39 40 41 41 41 40 39 39 40 41 40 38 37 37 36 34 33 32 31 30 30 29 28 28 28 28 28 29 29 30 30 30 31 31 32 33 33 34 35 36 38
41 43 41 39 38 39 39 38 38 38 38 38 39 39 38 36 36 35 34 32 32 31 30 30 29 28 28 28 28 28 28 28 29 30 30 30 31 32 32 33 34 35 37 38
41 42 42 40 37 37 38 37 36 36 36 37 37 36 36 35 34 34 33 32 31 31 30 29 29 28 28 28 28 28 28 28 29 29 30 31 31 32 32 33 34 36 37 39
39 41 41 40 39 37 37 37 37 36 36 35 35 35 34 33 33 33 32 31 30 30 29 29 28 28 28 27 27 27 28 29 29 30 30 31 31 32 33 34 35 37 38 40
39 39 41 41 41 39 37 36 36 36 35 35 34 34 33 32 32 31 30 30 29 29 28 28 28 28 27 27 27 28 28 29 29 30 30 31 31 32 33 34 36 37 39 41
39 40 40 40 42 41 39 37 37 35 34 34 34 34 33 32 31 30 30 29 29 28 28 28 28 27 27 27 27 28 28 29 29 29 30 31 31 32 34 35 36 38 39 41
40 40 40 41 43 43 42 40 38 36 34 32 32 33 32 31 30 30 30 29 28 28 27 27 27 27 27 27 27 28 28 28 29 29 30 31 32 33 34 35 37 38 40 42
39 40 41 42 42 43 42 40 37 36 35 33 33 32 32 31 30 29 29 28 27 27 27 27 27 27 27 27 27 28 28 29 29 30 31 31 32 33 34 36 37 39 41 43
41 41 41 42 43 43 41 40 38 36 35 34 34 33 32 31 30 29 28 27 27 27 26 26 26 27 27 27 27 27 28 29 29 30 30 31 32 33 35 36 38 40 42 44
41 40 42 43 44 43 42 40 39 37 35 35 34 33 32 31 29 28 27 27 27 26 26 25 26 26 26 27 27 27 28 28 29 30 31 32 33 34 35 37 39 41 43 45
41 41 41 43 44 44 43 40 39 37 36 34 34 34 33 32 30 29 27 27 26 25 25 26 26 26 26 26 27 27 28 29 29 30 31 33 34 35 37 38 40 42 44 46
40 41 40 41 44 44 42 41 40 38 36 34 33 33 33 32 30 28 27 26 25 25 26 25 25 26 26 27 27 28 28 29 30 31 32 33 35 36 37 39 41 43 45 47
38 39 39 41 42 42 41 39 38 36 35 34 33 32 32 31 29 28 27 26 26 26 26 26 26 26 27 27 28 28 29 30 31 32 33 34 35 37 39 40 42 44 46 48
37 38 39 41 41 40 39 37 36 35 34 33 33 32 31 30 30 29 28 28 27 27 26 26 27 27 27 28 28 29 30 31 32 33 34 35 36 38 40 41 43 45 47 49
37 37 38 39 39 39 38 37 35 34 34 33 32 31 30 30 29 28 28 28 28 27 27 27 28 28 28 29 29 30 31 32 33 34 35 36 37 39 41 42 44 46 48 50
36 37 38 38 38 38 37 36 34 34 33 32 32 31 30 30 28 28 28 28 28 28 28 28 29 29 30 30 30 31 32 33 34 34 35 37 39 40 42 43 45 47 49 51
36 38 38 38 36 36 35 34 33 33 33 32 31 31 30 29 29 29 29 29 29 29 29 29 30 30 30 30 31 31 32 33 34 35 36 38 40 41 43 44 46 48 50 52
35 36 37 36 35 35 34 33 32 32 31 31 31 31 30 30 30 29 29 29 29 29 29 30 30 30 30 31 31 32 33 34 35 36 38 39 41 42 44 45 47 49 51 52
33 34 34 35 35 35 35 33 32 32 32 31 31 31 31 31 30 30 30 30 30 29 29 30 30 30 30 31 31 32 33 35 36 37 39 40 42 43 45 47 48 49 50 51
Wind_Direction
224 223 223 223 224 224 225 227 229 227 227 226 228 228 230 232 233 235 236 238 241 245 248 252 254 256 258 260 262 264 266 268 271 274 277 280 282 284 286 287 289 291 293 295
224 224 224 223 222 223 224 226 227 227 225 224 226 228 230 232 233 233 234 237 241 244 247 250 252 255 257 260 262 264 266 269 272 275 278 280 283 285 286 288 290 292 294 296
226 225 225 224 221 222 222 223 225 224 221 224 225 227 228 230 231 232 234 237 240 244 246 249 251 254 256 259 261 264 267 270 273 276 279 281 283 285 287 289 291 294 296 297
224 224 226 223 222 222 222 222 223 222 221 223 224 226 227 228 231 232 234 236 240 243 245 248 251 254 256 259 262 264 268 271 275 278 281 283 284 286 288 290 293 295 296 298
222 223 224 221 221 222 222 220 220 222 222 223 225 226 227 229 232 234 234 235 238 242 244 247 250 253 255 258 262 265 269 272 276 279 281 283 285 287 289 291 293 296 297 298
222 223 221 218 221 222 223 221 221 224 224 225 227 229 229 231 233 233 234 236 238 241 243 246 249 251 254 258 262 266 270 273 276 279 281 284 286 288 289 291 294 296 298 299
224 224 219 216 219 220 223 221 222 226 226 227 229 231 228 229 231 233 235 236 237 240 243 245 248 251 255 258 262 266 270 274 277 279 282 284 286 288 290 293 295 297 298 301
224 222 215 215 218 220 221 220 221 223 224 226 227 228 227 228 231 233 233 234 236 239 243 246 249 252 255 259 263 267 270 273 276 279 282 284 286 289 291 293 295 297 300 302
225 220 214 215 216 217 218 219 220 221 222 224 225 227 227 228 230 232 232 233 235 239 242 245 248 252 256 261 264 268 271 274 277 280 282 284 287 290 292 294 296 298 301 303
222 217 215 214 213 214 215 216 219 220 221 223 224 225 226 227 229 230 231 233 235 238 242 245 248 252 258 262 265 268 272 274 277 280 282 285 288 290 293 295 297 300 302 304
219 216 214 212 212 212 213 214 217 217 218 221 223 224 225 227 228 229 231 232 236 239 242 245 249 253 258 262 265 269 272 275 278 280 283 286 288 291 293 295 298 301 303 305
216 216 216 212 213 213 212 213 215 214 214 217 219 221 223 225 226 227 230 233 236 238 241 246 249 254 258 261 265 268 272 275 278 281 284 287 289 291 294 297 299 302 304 307
216 215 215 212 212 212 211 212 213 213 214 216 218 220 221 222 223 225 228 232 235 238 242 246 250 254 257 261 265 269 272 276 279 282 285 288 290 292 295 298 300 303 306 308
218 216 214 212 213 213 209 209 211 212 214 216 217 219 220 221 223 225 228 232 235 238 242 246 250 254 258 262 266 270 273 276 280 283 286 288 291 294 297 299 302 304 307 309
219 217 214 212 212 212 211 210 212 213 214 214 216 218 220 221 223 225 229 232 236 239 243 247 251 255 259 262 266 270 273 277 281 284 287 290 293 296 298 301 303 306 309 311
217 216 214 213 212 212 212 212 212 213 214 213 214 216 219 220 223 225 229 233 238 241 245 249 252 256 260 263 267 271 276 279 282 285 288 291 294 297 300 302 305 307 310 312
214 213 212 211 211 210 210 210 212 213 212 212 212 215 218 220 223 226 230 234 238 242 246 250 254 258 261 265 269 273 277 280 283 286 289 292 295 298 301 303 306 309 311 313
211 210 209 208 208 208 208 208 211 211 210 211 214 217 219 221 224 227 231 235 239 243 247 251 255 259 263 267 271 274 278 281 284 287 291 294 296 299 302 305 307 310 312 314
210 209 208 206 206 207 208 208 209 210 210 211 215 218 221 223 225 229 232 236 239 244 249 253 257 260 264 269 272 275 279 282 285 288 291 294 297 300 303 306 308 311 313 315
209 207 206 206 205 205 207 208 209 211 213 217 219 221 223 225 227 230 233 237 241 246 250 254 258 262 266 270 274 277 280 283 285 289 292 295 298 301 304 307 309 311 313 316
205 204 204 204 204 204 205 207 208 210 215 218 221 224 225 226 229 232 236 240 244 248 252 256 261 265 268 271 275 278 281 284 287 290 293 296 299 302 305 307 309 312 314 316
200 200 201 201 201 203 204 206 208 211 215 219 222 225 227 229 231 235 239 242 246 249 254 258 263 266 270 273 276 279 282 285 288 291 294 297 300 303 305 308 310 313 315 317
198 198 199 200 200 201 204 206 209 213 217 221 223 226 228 231 233 237 240 244 248 251 255 260 264 267 270 274 277 280 284 286 288 292 295 298 301 303 306 308 311 313 315 317
199 198 198 199 200 202 204 206 210 215 219 221 223 226 228 231 234 238 242 246 250 254 258 262 265 268 271 275 278 281 283 286 289 292 296 299 301 304 307 309 311 314 316 318
200 200 199 199 201 202 205 209 213 216 219 223 226 229 231 233 236 241 245 249 252 256 259 262 265 269 273 276 279 282 284 287 290 293 296 299 302 305 307 310 312 314 317 319
200 200 200 201 203 205 209 212 215 218 221 225 227 230 233 236 239 243 247 251 255 258 261 263 267 271 274 277 280 283 285 288 290 293 297 300 303 305 308 310 313 315 317 319
199 200 202 204 207 209 212 214 217 221 224 227 230 232 235 237 241 245 249 253 257 260 262 264 268 271 274 278 281 283 286 288 291 294 297 301 304 306 309 311 313 315 317 319
Height
5547 5554 5562 5571 5579 5586 5593 5603 5613 5625 5632 5640 5646 5651 5655 5659 5663 5667 5671 5674 5676 5679 5681 5684 5686 5687 5689 5690 5691 5692 5692 5693 5693 5693 5692 5691 5690 5689 5688 5686 5684 5682 5679 5676
5538 5546 5552 5560 5569 5577 5587 5597 5606 5615 5623 5632 5636 5641 5646 5650 5655 5659 5663 5666 5669 5671 5674 5676 5678 5679 5681 5682 5683 5684 5685 5685 5685 5685 5685 5684 5683 5681 5680 5678 5676 5674 5671 5668
5531 5538 5542 5550 5562 5572 5581 5589 5598 5606 5617 5622 5627 5632 5638 5642 5646 5650 5654 5658 5661 5663 5666 5668 5670 5672 5674 5675 5676 5677 5677 5678 5678 5677 5677 5676 5675 5673 5672 5670 5668 5665 5662 5659
5523 5529 5534 5550 5558 5565 5574 5582 5590 5598 5606 5611 5618 5623 5628 5632 5637 5641 5645 5649 5652 5655 5658 5660 5662 5664 5666 5667 5668 5669 5670 5670 5670 5669 5669 5668 5667 5665 5664 5662 5659 5657 5654 5651
5514 5520 5530 5542 5550 5558 5565 5574 5583 5589 5596 5602 5608 5612 5618 5624 5628 5633 5637 5641 5644 5647 5650 5652 5655 5657 5659 5660 5661 5662 5662 5662 5662 5662 5661 5660 5659 5657 5655 5653 5651 5648 5645 5642
5507 5513 5523 5538 5545 5550 5557 5565 5575 5580 5586 5592 5597 5603 5612 5616 5620 5624 5628 5632 5635 5639 5642 5645 5648 5650 5652 5653 5654 5654 5655 5655 5654 5654 5653 5652 5651 5649 5647 5645 5643 5640 5637 5633
5499 5506 5516 5529 5535 5541 5550 5562 5567 5572 5577 5582 5588 5598 5605 5607 5611 5615 5620 5624 5628 5631 5635 5638 5640 5642 5644 5645 5646 5647 5647 5647 5647 5646 5645 5644 5643 5641 5639 5637 5634 5631 5628 5625
5492 5501 5515 5522 5527 5535 5543 5552 5557 5562 5567 5573 5581 5588 5593 5597 5602 5607 5612 5617 5620 5624 5627 5630 5633 5635 5636 5637 5638 5639 5639 5639 5639 5638 5637 5636 5635 5633 5631 5628 5626 5622 5619 5615
5488 5500 5508 5513 5520 5527 5534 5541 5547 5553 5559 5565 5572 5578 5584 5590 5595 5600 5605 5609 5613 5616 5619 5622 5625 5627 5628 5630 5630 5631 5631 5631 5631 5630 5629 5628 5626 5624 5622 5620 5617 5614 5610 5606
5480 5490 5498 5505 5512 5519 5526 5533 5539 5545 5551 5558 5564 5570 5576 5582 5587 5592 5597 5601 5605 5609 5612 5614 5617 5619 5621 5622 5622 5623 5623 5623 5623 5622 5621 5620 5618 5616 5614 5611 5608 5605 5601 5597
5472 5482 5490 5498 5505 5512 5519 5525 5531 5538 5545 5551 5557 5563 5568 5574 5579 5585 5590 5594 5598 5601 5604 5607 5609 5611 5613 5614 5615 5615 5615 5615 5615 5614 5613 5611 5610 5608 5605 5603 5600 5596 5592 5588
5466 5475 5481 5490 5497 5504 5510 5518 5524 5531 5538 5544 5550 5556 5561 5567 5572 5577 5582 5587 5590 5594 5597 5599 5601 5603 5605 5606 5607 5607 5607 5607 5607 5606 5605 5603 5601 5599 5596 5594 5591 5587 5583 5579
5459 5465 5473 5481 5488 5496 5504 5511 5518 5525 5531 5538 5544 5549 5555 5560 5565 5570 5575 5579 5583 5586 5589 5592 5594 5596 5597 5598 5599 5599 5599 5599 5598 5597 5596 5595 5593 5591 5588 5585 5582 5578 5573 5569
5451 5457 5465 5474 5482 5489 5497 5504 5512 5519 5525 5531 5537 5543 5548 5553 5558 5563 5568 5572 5575 5579 5582 5584 5586 5588 5589 5590 5591 5591 5591 5591 5590 5589 5588 5586 5584 5582 5579 5576 5573 5568 5564 5559
5444 5451 5459 5466 5474 5482 5490 5498 5505 5513 5519 5525 5531 5536 5542 5547 5552 5556 5560 5564 5568 5571 5574 5576 5579 5580 5581 5582 5583 5583 5583 5583 5582 5581 5579 5578 5576 5573 5570 5567 5563 5559 5554 5549
5436 5443 5450 5459 5468 5476 5484 5492 5500 5507 5513 5519 5525 5530 5535 5540 5545 5549 5553 5557 5561 5564 5567 5569 5571 5572 5574 5575 5575 5575 5575 5575 5574 5573 5571 5569 5567 5564 5561 5558 5554 5550 5545 5539
5428 5436 5444 5453 5461 5470 5478 5486 5493 5500 5506 5512 5518 5523 5528 5533 5538 5543 5547 5550 5554 5557 5559 5561 5563 5565 5566 5567 5567 5567 5567 5566 5565 5564 5562 5560 5558 5555 5552 5549 5545 5540 5535 5529
5421 5429 5437 5445 5454 5462 5471 5479 5487 5493 5500 5506 5511 5517 5522 5527 5532 5536 5540 5543 5547 5549 5552 5554 5555 5557 5558 5559 5559 5559 5558 5558 5557 5555 5554 5552 5549 5546 5543 5539 5535 5530 5525 5519
5413 5421 5430 5438 5447 5456 5465 5473 5480 5487 5494 5499 5505 5511 5516 5521 5525 5529 5533 5536 5539 5542 5544 5546 5547 5549 5550 5550 5550 5550 5550 5549 5548 5547 5545 5543 5540 5537 5533 5530 5525 5520 5515 5509
5406 5415 5423 5431 5440 5449 5458 5466 5473 5480 5487 5493 5499 5504 5509 5514 5518 5522 5526 5529 5532 5535 5537 5538 5540 5541 5542 5542 5542 5542 5541 5540 5539 5538 5536 5533 5531 5527 5524 5520 5515 5510 5504 5498
5401 5409 5417 5426 5435 5444 5452 5460 5467 5474 5481 5487 5493 5498 5502 5507 5511 5515 5519 5522 5525 5527 5529 5530 5532 5533 5533 5534 5534 5533 5532 5531 5530 5529 5526 5524 5521 5518 5514 5510 5505 5500 5494 5487
5395 5403 5412 5420 5429 5438 5447 5454 5461 5468 5474 5481 5486 5491 5496 5500 5504 5508 5511 5514 5517 5519 5521 5522 5524 5524 5525 5525 5525 5524 5524 5522 5521 5519 5517 5514 5511 5508 5504 5500 5495 5489 5483 5476
5391 5399 5407 5416 5425 5433 5441 5448 5456 5462 5469 5475 5480 5484 5489 5493 5497 5501 5504 5507 5509 5511 5513 5514 5515 5516 5516 5516 5516 5515 5515 5513 5512 5510 5507 5505 5501 5498 5494 5489 5484 5478 5472 5465
5388 5396 5404 5411 5419 5427 5436 5443 5450 5456 5462 5468 5472 5477 5482 5486 5490 5493 5496 5498 5501 5503 5504 5505 5506 5507 5507 5507 5507 5506 5505 5504 5502 5500 5498 5495 5491 5487 5483 5478 5473 5467 5460 5454
5385 5393 5400 5408 5416 5424 5431 5437 5444 5450 5456 5461 5466 5470 5475 5479 5482 5485 5488 5490 5492 5494 5496 5497 5497 5498 5498 5498 5498 5497 5496 5494 5492 5490 5488 5484 5481 5477 5472 5467 5462 5456 5449 5442
5383 5390 5397 5404 5412 5419 5426 5433 5439 5444 5450 5454 5459 5463 5467 5471 5474 5477 5480 5482 5484 5485 5487 5488 5488 5489 5489 5489 5488 5487 5486 5484 5482 5480 5477 5474 5470 5466 5461 5456 5450 5444 5437 5430
5381 5387 5394 5401 5408 5414 5421 5427 5432 5438 5443 5448 5452 5456 5459 5463 5466 5469 5471 5473 5475 5476 5478 5478 5479 5479 5479 5479 5478 5477 5476 5474 5472 5469 5466 5463 5459 5455 5450 5444 5439 5432 5426 5419